Temp
12 10 10 9 10 11 12 12 12 14 16 15 16 14 16 17 18 18 19 19 20 20 22 22 22 22 22 22 22 22 22 21 19 18 18 17 17 15 14 13 14 15 13 14
10 9 12 13 13 12 12 12 12 14 15 16 14 14 14 15 15 18 18 19 20 20 21 21 21 22 22 22 22 22 22 21 20 20 19 18 17 15 14 13 13 13 13 13
10 12 14 14 13 13 13 12 13 13 15 14 13 14 14 16 17 18 19 20 19 19 20 21 21 22 22 22 22 22 22 21 20 19 18 16 16 14 13 13 13 13 12 13
11 12 13 12 12 13 12 14 14 14 14 11 14 12 14 16 17 18 19 20 19 20 21 20 20 20 20 21 22 22 22 21 19 19 18 18 18 16 14 13 13 13 13 13
10 11 11 11 12 13 12 14 13 14 14 12 12 11 13 15 16 18 19 19 19 19 18 17 17 19 20 20 21 21 22 20 19 18 19 18 18 16 13 12 12 12 12 12
11 13 11 10 11 12 13 13 12 10 11 10 12 12 12 15 16 18 17 16 15 15 16 17 17 18 19 19 20 21 21 20 19 18 19 19 18 16 12 12 12 12 12 11
9 9 10 11 10 11 11 11 8 7 9 9 13 12 13 16 17 15 14 13 12 13 14 14 15 15 17 18 20 20 20 19 18 19 18 18 16 16 13 13 13 12 12 12
5 5 8 10 8 8 10 11 7 8 9 10 13 12 14 17 17 10 13 12 11 11 10 11 11 12 15 18 20 20 20 19 19 19 18 16 16 15 15 14 13 13 13 13
4 6 8 8 9 11 8 8 9 7 10 9 11 13 14 12 12 10 11 10 9 7 6 8 10 10 12 13 15 17 18 17 18 17 17 16 15 15 14 14 13 12 12 12
5 4 8 10 8 9 10 10 8 7 8 9 11 11 8 7 7 9 10 8 7 6 6 6 7 8 10 11 12 15 16 16 16 16 16 15 15 13 13 13 12 12 12 11
5 5 6 8 8 8 7 7 8 9 10 9 10 9 5 6 9 9 9 7 5 4 3 2 5 6 8 9 10 11 12 15 15 15 15 14 14 13 13 12 11 11 11 11
3 3 3 6 9 8 9 8 9 7 10 11 9 8 7 7 8 9 9 7 4 3 2 1 2 4 6 8 9 9 10 11 12 14 14 14 13 12 11 11 10 11 11 10
3 3 2 5 9 9 9 10 11 10 8 10 9 7 6 8 7 6 5 4 2 1 0 0 1 2 3 5 7 9 10 10 11 12 12 12 11 11 11 10 10 10 9 9
2 3 3 4 7 7 6 8 11 10 8 8 8 6 6 5 4 3 2 1 0 -1 -2 -2 -1 -0 1 3 5 7 9 10 10 11 11 11 11 10 10 10 9 10 9 9
2 4 4 4 6 6 6 6 8 8 6 7 5 4 4 2 2 0 -0 -1 -1 -2 -3 -4 -4 -2 -1 1 3 5 7 9 9 9 10 10 10 10 10 9 9 10 9 9
2 4 5 5 6 6 6 7 6 5 5 5 6 4 3 1 -1 -1 -2 -3 -3 -3 -4 -5 -5 -4 -3 -1 -0 3 5 8 9 9 9 9 10 10 9 10 10 10 9 9
3 4 5 6 6 7 7 6 5 4 3 5 3 2 2 -1 -2 -4 -4 -4 -5 -5 -6 -6 -6 -5 -4 -3 -2 -0 2 4 7 8 9 9 9 10 9 9 10 9 9 9
4 4 5 6 8 7 4 5 4 2 1 2 1 1 -0 -3 -4 -5 -5 -6 -6 -6 -7 -6 -5 -5 -5 -4 -2 -2 0 3 4 4 7 8 9 10 10 10 10 9 9 9
5 5 6 7 6 6 5 4 2 4 1 0 -1 -1 -1 -2 -1 -5 -5 -6 -7 -7 -6 -6 -6 -5 -5 -4 -4 -2 -1 0 2 1 2 4 7 9 9 9 9 9 8 8
8 7 6 7 6 5 2 1 2 4 -0 -1 -2 -2 -3 -1 -3 -5 -6 -6 -7 -7 -7 -6 -6 -5 -4 -5 -4 -3 -3 -1 -0 -1 -1 -0 1 4 7 7 7 7 7 7
5 4 4 4 4 3 -1 0 3 0 -0 -2 -3 -4 -5 -5 -5 -6 -7 -7 -7 -7 -7 -6 -6 -6 -6 -5 -4 -4 -4 -4 -4 -3 -3 -1 -2 -3 0 3 3 2 2 2
2 3 2 3 3 2 -2 1 -0 -1 -3 -3 -4 -5 -6 -6 -7 -7 -7 -7 -7 -7 -7 -7 -6 -6 -6 -5 -5 -5 -5 -5 -4 -3 -3 -2 -2 -3 -3 -1 -1 -0 -1 -1
2 2 1 1 -0 -2 -3 -4 -4 -4 -4 -5 -5 -6 -6 -7 -7 -8 -8 -8 -8 -8 -8 -7 -7 -7 -6 -6 -6 -6 -6 -5 -4 -3 -3 -3 -3 -3 -3 -2 -2 -1 -1 -2
0 1 0 0 -2 -3 -3 -4 -5 -5 -5 -6 -6 -6 -7 -7 -8 -8 -8 -8 -9 -8 -8 -7 -7 -7 -7 -6 -6 -7 -6 -5 -5 -5 -4 -4 -3 -3 -3 -4 -3 -3 -3 -3
-1 -0 -0 -1 -3 -4 -5 -5 -5 -6 -6 -6 -7 -7 -7 -7 -8 -8 -9 -9 -9 -9 -9 -8 -8 -7 -8 -7 -7 -7 -6 -6 -6 -6 -6 -6 -5 -5 -4 -5 -5 -5 -6 -4
-2 -3 -2 -3 -3 -4 -5 -6 -6 -6 -6 -7 -7 -7 -8 -8 -9 -9 -9 -10 -9 -9 -9 -8 -8 -8 -8 -8 -8 -8 -7 -7 -6 -7 -7 -7 -7 -7 -7 -7 -7 -7 -7 -7
Height
1462 1460 1451 1458 1457 1453 1450 1448 1443 1431 1426 1427 1422 1421 1414 1410 1410 1407 1407 1405 1404 1402 1402 1404 1406 1408 1411 1413 1416 1417 1421 1428 1431 1433 1439 1444 1447 1451 1456 1461 1465 1468 1471 1473
1462 1451 1449 1447 1447 1445 1442 1443 1438 1430 1422 1422 1418 1415 1411 1409 1406 1403 1400 1397 1397 1398 1397 1397 1398 1400 1403 1406 1408 1408 1411 1418 1423 1427 1432 1436 1441 1445 1452 1455 1459 1462 1466 1469
1454 1444 1440 1440 1438 1437 1432 1434 1432 1429 1419 1415 1417 1414 1409 1400 1398 1394 1391 1390 1390 1394 1394 1395 1396 1395 1397 1400 1402 1402 1405 1411 1416 1422 1427 1432 1437 1442 1448 1450 1453 1456 1460 1464
1443 1439 1438 1437 1433 1432 1430 1422 1421 1419 1420 1427 1415 1423 1410 1401 1393 1387 1382 1377 1380 1385 1388 1391 1391 1389 1390 1391 1396 1395 1399 1404 1410 1416 1421 1425 1428 1432 1437 1443 1447 1451 1454 1457
1434 1438 1436 1434 1429 1426 1422 1420 1419 1414 1413 1417 1417 1427 1398 1397 1390 1380 1370 1362 1371 1381 1384 1383 1381 1383 1386 1388 1390 1391 1392 1398 1404 1411 1416 1419 1423 1427 1432 1437 1441 1447 1449 1451
1429 1427 1428 1426 1424 1422 1418 1417 1416 1428 1415 1422 1410 1419 1400 1389 1382 1377 1366 1369 1370 1374 1375 1377 1379 1379 1380 1381 1385 1387 1386 1390 1397 1405 1410 1413 1417 1422 1426 1432 1436 1439 1442 1444
1430 1425 1421 1422 1422 1417 1417 1418 1438 1434 1428 1419 1401 1409 1389 1373 1370 1374 1377 1369 1371 1372 1375 1378 1379 1380 1380 1378 1377 1381 1384 1386 1394 1400 1404 1409 1412 1416 1422 1428 1431 1433 1435 1437
1440 1433 1423 1418 1425 1424 1411 1410 1431 1423 1418 1405 1395 1393 1378 1368 1367 1377 1383 1374 1374 1378 1382 1383 1384 1382 1379 1375 1375 1379 1381 1386 1391 1396 1400 1405 1409 1413 1419 1423 1426 1429 1430 1432
1445 1426 1422 1417 1412 1409 1411 1412 1411 1429 1403 1412 1394 1381 1372 1380 1374 1386 1387 1383 1386 1388 1390 1385 1386 1384 1378 1378 1378 1380 1383 1386 1391 1394 1399 1403 1406 1412 1415 1419 1421 1423 1425 1427
1444 1436 1415 1406 1409 1400 1396 1402 1417 1423 1412 1405 1388 1391 1402 1403 1399 1400 1391 1390 1391 1393 1391 1390 1388 1387 1383 1381 1381 1382 1383 1386 1390 1394 1399 1402 1406 1410 1413 1415 1418 1420 1423 1423
1444 1440 1417 1413 1404 1403 1405 1404 1412 1410 1399 1401 1397 1398 1419 1407 1403 1397 1401 1399 1400 1399 1397 1396 1393 1392 1389 1388 1386 1384 1385 1387 1388 1393 1394 1399 1402 1405 1410 1414 1416 1417 1418 1418
1445 1441 1428 1409 1395 1396 1398 1404 1402 1409 1398 1391 1401 1415 1416 1411 1409 1406 1407 1409 1410 1406 1404 1403 1400 1394 1391 1388 1387 1389 1387 1390 1388 1390 1392 1397 1401 1403 1407 1411 1413 1413 1414 1415
1445 1438 1437 1409 1393 1390 1393 1393 1390 1393 1404 1398 1404 1416 1418 1412 1410 1412 1416 1417 1410 1412 1410 1407 1403 1399 1395 1393 1391 1392 1390 1386 1390 1392 1393 1396 1400 1402 1405 1408 1409 1410 1412 1411
1442 1432 1431 1422 1402 1405 1408 1398 1387 1390 1405 1407 1411 1420 1423 1426 1423 1421 1421 1423 1423 1420 1417 1413 1408 1404 1400 1396 1393 1392 1389 1387 1388 1393 1395 1397 1399 1402 1405 1407 1408 1409 1410 1410
1437 1422 1417 1413 1407 1409 1410 1410 1397 1403 1413 1409 1425 1426 1431 1436 1436 1436 1436 1432 1427 1424 1421 1418 1415 1409 1404 1400 1396 1394 1391 1390 1390 1392 1395 1396 1398 1402 1404 1406 1407 1409 1409 1409
1431 1419 1407 1389 1394 1407 1411 1401 1408 1420 1422 1426 1423 1434 1441 1444 1443 1441 1440 1436 1434 1431 1427 1423 1418 1413 1409 1405 1401 1398 1393 1390 1390 1390 1394 1395 1397 1401 1403 1406 1407 1408 1409 1409
1428 1418 1405 1399 1394 1399 1401 1414 1423 1434 1438 1433 1441 1453 1449 1450 1450 1450 1446 1444 1443 1438 1433 1429 1425 1421 1416 1410 1404 1398 1395 1393 1390 1390 1391 1394 1395 1399 1402 1404 1406 1407 1407 1409
1421 1416 1407 1400 1389 1404 1431 1429 1430 1437 1451 1453 1456 1454 1449 1452 1454 1454 1452 1452 1448 1444 1440 1436 1431 1425 1419 1414 1408 1403 1398 1395 1392 1390 1390 1391 1394 1398 1400 1403 1405 1407 1408 1408
1416 1415 1406 1400 1409 1418 1423 1434 1443 1438 1457 1458 1456 1454 1452 1452 1451 1457 1458 1457 1452 1448 1445 1441 1435 1431 1426 1419 1413 1407 1402 1398 1397 1394 1390 1391 1390 1395 1398 1400 1402 1405 1407 1408
1407 1408 1405 1399 1413 1426 1443 1440 1437 1439 1458 1461 1460 1459 1455 1447 1455 1465 1463 1460 1455 1453 1449 1446 1442 1436 1429 1424 1419 1414 1407 1402 1400 1400 1398 1391 1392 1393 1395 1398 1400 1402 1404 1406
1419 1419 1425 1420 1428 1443 1457 1443 1432 1454 1471 1467 1466 1466 1464 1463 1471 1473 1468 1463 1460 1457 1454 1451 1444 1438 1436 1433 1428 1420 1416 1409 1410 1406 1405 1399 1396 1398 1397 1396 1399 1400 1403 1404
1441 1439 1443 1438 1443 1452 1460 1447 1453 1468 1469 1469 1469 1470 1469 1470 1471 1470 1469 1466 1464 1462 1458 1454 1450 1448 1445 1438 1433 1429 1424 1424 1417 1414 1410 1404 1406 1409 1408 1401 1399 1402 1405 1406
1450 1452 1455 1460 1468 1475 1474 1471 1470 1469 1469 1471 1473 1474 1474 1474 1474 1474 1473 1472 1469 1466 1463 1461 1457 1453 1448 1443 1440 1437 1436 1432 1427 1422 1419 1416 1412 1416 1415 1412 1410 1409 1413 1414
1458 1455 1460 1461 1474 1474 1474 1474 1473 1473 1473 1475 1477 1477 1477 1476 1477 1477 1476 1474 1472 1470 1468 1465 1461 1456 1451 1449 1448 1446 1443 1440 1436 1433 1430 1429 1425 1425 1418 1420 1416 1418 1419 1418
1467 1461 1463 1471 1477 1478 1480 1480 1479 1478 1478 1479 1481 1480 1479 1479 1479 1479 1478 1477 1475 1474 1472 1468 1465 1461 1459 1457 1455 1454 1451 1448 1444 1441 1439 1437 1435 1431 1428 1429 1425 1429 1427 1423
1474 1475 1473 1477 1478 1479 1484 1484 1483 1482 1481 1484 1484 1483 1483 1482 1482 1482 1481 1480 1479 1476 1475 1472 1470 1469 1467 1464 1461 1460 1457 1454 1452 1450 1448 1445 1442 1441 1441 1438 1436 1436 1436 1434
Wind_Speed
16 10 14 9 14 19 17 19 21 19 13 13 18 11 16 13 22 23 26 24 28 31 25 23 22 26 48 42 43 46 41 40 47 44 37 35 34 32 30 34 38 36 30 30
6 20 14 12 17 19 22 25 25 22 21 17 14 12 9 9 9 22 21 24 28 30 33 29 31 29 28 32 35 44 44 41 45 43 38 36 34 32 34 31 29 32 35 33
13 11 12 16 20 23 22 20 19 19 16 8 8 15 9 16 19 35 31 34 40 35 32 31 35 37 29 27 28 31 30 41 48 43 39 34 29 27 33 35 34 31 30 30
13 11 17 20 21 19 21 17 21 20 19 8 3 15 14 11 21 24 31 44 34 29 26 21 13 6 7 18 36 35 29 35 42 39 35 31 31 34 38 40 39 37 32 32
20 15 19 23 23 20 23 19 19 21 17 3 9 6 16 11 19 22 20 19 31 26 6 14 10 8 14 13 14 34 35 35 36 34 30 29 27 28 32 36 35 33 32 32
19 24 6 10 20 24 23 18 7 15 3 9 14 9 13 15 14 13 6 19 24 21 17 14 13 8 11 16 19 24 39 37 35 31 29 26 28 28 33 30 27 29 28 28
11 13 14 19 23 22 16 16 4 4 3 11 9 11 19 13 20 1 3 23 27 25 23 19 17 20 14 16 20 25 37 35 31 27 29 28 28 28 30 28 28 27 24 24
5 11 2 9 13 15 18 10 5 5 5 8 12 9 10 11 5 22 16 29 31 30 25 21 22 25 18 11 9 21 36 36 31 29 29 27 25 24 25 26 24 23 19 18
4 10 19 20 15 17 6 6 18 11 7 3 4 7 7 21 15 16 21 28 27 29 30 28 24 27 17 15 13 23 27 25 24 25 25 21 27 24 26 25 24 19 17 22
4 14 7 12 15 7 1 3 2 6 2 4 1 3 4 12 17 6 17 21 27 32 34 30 27 28 20 14 8 11 16 16 17 22 20 21 26 25 26 24 21 20 24 25
6 6 13 13 4 7 2 1 6 8 4 2 2 4 3 9 12 16 18 27 27 31 35 34 28 25 24 16 15 8 4 13 16 23 24 26 28 28 24 21 19 21 22 21
6 5 7 17 18 7 13 10 12 3 2 4 5 2 7 8 6 17 24 26 25 31 32 33 30 27 24 22 16 13 6 0 13 22 23 26 26 22 18 16 18 18 17 16
3 3 5 9 2 3 4 9 6 4 6 3 2 2 8 11 19 26 25 26 32 31 33 35 33 30 27 24 18 11 8 9 8 14 18 21 17 18 16 14 12 11 11 12
3 6 10 7 6 8 6 17 11 5 4 1 4 9 16 17 18 21 28 29 26 27 27 32 34 31 27 25 21 14 9 8 9 12 13 14 14 15 15 12 10 9 9 9
3 7 12 19 21 15 15 20 15 10 4 3 11 20 13 16 16 20 21 23 25 27 28 31 32 33 30 26 22 17 12 2 7 9 11 11 12 12 10 9 8 9 9 9
3 5 7 20 18 15 6 12 19 12 15 10 12 15 11 17 19 21 23 24 25 25 26 26 29 31 31 29 24 20 14 6 5 10 11 12 13 12 10 10 8 8 8 9
4 3 4 8 20 15 11 17 20 19 20 13 14 8 8 12 16 22 23 23 23 23 25 26 27 28 28 26 24 23 18 9 2 10 14 15 15 10 18 15 15 15 15 14
4 4 2 3 3 7 7 18 23 25 17 15 12 12 11 17 23 26 25 22 22 22 24 26 26 25 26 24 22 21 17 11 2 7 11 15 15 16 19 19 16 13 11 14
10 2 4 3 4 6 12 13 10 10 10 16 15 15 14 8 7 27 26 24 23 23 23 24 26 25 25 25 23 21 20 16 11 11 10 9 15 17 17 15 19 17 15 13
2 6 3 2 5 4 3 21 23 8 6 17 17 16 16 16 7 7 20 21 23 22 23 24 24 27 29 29 27 27 27 25 23 21 14 12 9 13 18 18 17 16 15 15
5 5 7 5 4 4 16 23 21 6 3 15 15 16 20 10 11 11 14 18 19 22 23 23 27 29 29 29 28 32 31 31 23 20 19 16 16 18 16 19 18 17 17 16
7 5 5 4 5 2 30 7 6 6 16 14 15 15 19 17 16 17 18 20 21 23 24 25 27 28 27 29 32 32 33 25 23 24 25 26 23 20 20 20 22 21 20 21
5 5 3 5 4 7 13 16 15 15 17 14 14 13 16 18 18 18 19 21 22 22 24 25 26 27 28 29 30 31 31 30 27 25 26 26 25 22 23 24 24 22 19 20
7 14 4 2 7 12 14 14 14 14 15 14 12 13 15 18 17 19 19 19 20 20 21 21 24 28 30 28 27 26 24 25 28 31 30 27 26 24 25 24 26 24 22 22
5 8 6 6 10 13 12 10 11 13 14 14 14 15 16 15 16 16 18 18 18 18 20 21 24 25 26 25 24 22 22 22 23 23 26 27 27 27 26 26 28 24 24 24
6 3 3 2 6 11 6 6 8 12 14 12 13 16 16 15 16 16 17 15 15 16 17 19 20 21 22 22 24 24 21 20 20 21 22 22 22 23 24 24 25 24 23 23
Wind_Direction
272 256 231 225 224 246 261 268 276 269 278 246 246 259 268 249 266 267 261 263 277 286 266 269 269 254 237 239 239 238 235 227 213 213 214 216 223 226 215 215 216 222 219 221
252 255 273 241 239 246 246 249 258 271 275 275 283 280 268 271 262 272 262 270 272 275 274 273 273 269 255 243 234 232 230 219 213 216 217 223 225 226 219 220 218 220 218 218
252 267 283 266 260 252 249 257 266 267 267 247 299 292 291 276 276 274 275 263 264 265 261 258 257 257 245 245 226 234 229 222 211 210 213 215 221 224 222 222 223 219 224 222
269 287 289 287 280 274 276 258 260 267 269 251 211 276 267 267 255 266 266 265 239 240 238 261 238 241 254 250 230 228 233 216 206 208 214 225 233 228 228 226 225 225 225 225
268 266 267 270 277 289 277 279 299 267 262 252 248 271 276 258 274 279 291 232 227 233 126 50 11 317 285 265 255 234 223 204 202 204 222 232 241 237 234 227 231 227 230 231
274 279 252 274 290 281 283 287 217 279 293 247 241 234 267 249 250 295 145 86 77 63 56 42 27 345 287 268 264 244 211 203 199 202 226 239 241 233 222 219 224 227 227 233
315 297 294 287 288 282 282 265 258 240 210 247 211 232 242 263 250 99 60 72 58 50 32 22 11 356 327 293 242 224 207 204 193 213 227 233 232 232 225 231 238 232 226 231
317 313 2 326 313 283 262 214 201 207 214 256 215 250 245 248 216 104 44 71 54 38 27 21 13 1 358 349 277 210 207 204 205 221 225 220 227 224 233 233 233 229 236 249
306 273 320 287 310 286 194 184 199 268 309 232 232 273 35 358 50 18 88 64 53 38 27 23 22 18 43 49 112 177 179 198 208 216 219 222 209 222 218 226 230 231 246 258
291 301 293 306 355 292 235 105 131 233 275 248 181 281 81 33 19 341 55 57 47 35 26 20 22 18 30 35 42 157 181 185 199 217 211 213 209 207 217 224 227 236 251 246
290 247 287 299 212 239 41 176 213 217 216 280 304 79 66 33 18 59 63 55 46 37 25 17 16 15 25 41 43 42 279 227 212 211 203 204 211 216 216 217 231 239 250 245
28 273 277 280 269 269 249 211 213 120 257 233 110 11 303 347 54 52 54 51 48 38 21 15 15 14 16 23 27 24 43 322 171 190 202 210 210 210 216 223 235 243 243 240
8 275 318 313 238 234 273 208 205 139 36 316 65 101 334 32 41 39 37 34 35 26 16 11 13 14 13 12 13 6 43 85 173 200 202 204 203 212 217 226 244 237 231 233
259 223 224 239 289 341 321 318 191 120 156 34 52 64 41 37 30 24 21 23 23 23 18 12 10 9 8 9 7 3 7 87 127 187 200 209 212 204 215 230 243 237 223 219
219 260 227 241 251 274 279 286 68 63 57 305 92 58 40 35 29 28 20 20 19 17 15 11 7 7 6 6 6 1 1 41 165 176 208 199 189 198 214 234 217 214 213 215
234 286 291 274 211 225 237 88 85 49 31 68 68 52 52 42 37 33 26 23 20 16 12 10 9 9 8 5 7 2 352 9 171 175 192 185 185 192 198 205 211 203 194 197
256 276 309 94 114 148 81 97 91 80 41 41 45 3 39 63 52 36 27 25 20 17 14 14 15 15 11 10 8 10 360 343 116 158 164 190 186 197 192 195 189 204 202 198
252 268 275 275 2 55 88 60 88 79 49 39 45 25 102 95 70 47 36 28 23 22 23 26 25 25 22 21 22 23 14 351 52 118 133 154 182 197 186 184 191 191 189 201
199 271 285 102 56 150 34 9 345 351 54 35 31 28 78 143 41 42 33 31 32 31 35 37 38 36 37 36 37 42 44 35 13 46 90 118 146 183 187 182 186 201 198 204
312 252 183 337 63 63 14 326 317 298 55 35 36 34 28 34 53 21 22 30 29 37 41 44 47 48 47 44 48 50 54 53 46 31 22 89 102 146 182 176 172 174 177 182
359 3 26 13 90 76 351 322 323 67 20 53 51 53 51 64 70 53 38 39 41 39 44 49 49 49 51 51 49 53 53 55 58 62 61 51 81 95 118 143 143 143 138 138
36 349 22 358 62 13 359 9 63 76 63 67 64 69 75 75 69 60 53 53 50 49 49 52 55 53 50 54 55 54 52 55 61 68 72 74 70 75 84 108 118 118 114 111
41 357 54 19 87 74 46 58 57 72 72 62 73 78 86 81 74 70 65 58 55 55 55 54 57 59 56 54 54 56 58 59 61 62 67 74 82 87 86 87 88 87 88 92
344 16 98 122 59 54 50 59 60 70 78 77 81 90 88 86 80 74 68 62 56 48 50 53 56 56 54 54 57 58 56 54 63 65 65 67 72 72 77 84 90 87 90 90
346 339 25 81 112 99 58 59 77 79 82 85 87 86 85 84 75 73 66 59 57 54 51 53 56 56 58 56 52 52 51 58 63 65 62 60 62 63 69 74 74 79 83 90
4 354 1 99 100 98 84 81 94 95 91 89 90 85 79 79 78 73 66 60 57 56 55 57 60 60 57 58 59 52 51 52 55 61 63 64 61 61 66 73 80 82 88 93